N5GAH-13 Weather Reports


Display with metric or nautical units.
time (UTC)temp
F
wind
direction
speed
MPH
gust
MPH
rain 1hr
in
rain 24hr
in
rain mn
in
humidity
%
barometer
mb
20260509004001 89 198 2.0 5.0 0.00 0.00 0.00 16 1013.5
20260509001001 91 318 3.0 8.0 0.00 0.00 0.00 15 1013.5
20260508231000 91 307 3.0 11.0 0.00 0.00 0.00 15 1013.4
20260508224001 91 240 4.0 10.0 0.00 0.00 0.00 17 1013.4
20260508221001 90 88 3.0 11.0 0.00 0.00 0.00 17 1013.6
20260508214001 90 320 5.0 11.0 0.00 0.00 0.00 16 1013.9
20260508211001 90 238 2.0 6.0 0.00 0.00 0.00 19 1014.2
20260508204001 89 314 2.0 8.0 0.00 0.00 0.00 19 1014.6
20260508201001 88 340 5.0 10.0 0.00 0.00 0.00 22 1015.2
20260508194001 89 190 3.0 8.0 0.00 0.00 0.00 25 1015.6
20260508191001 86 127 3.0 10.0 0.00 0.00 0.00 31 1015.9
20260508183959 84 307 3.0 5.0 0.00 0.00 0.00 29 1016.5
20260508181001 84 210 3.0 8.0 0.00 0.00 0.00 46 1016.9
20260508174001 82 216 3.0 8.0 0.00 0.00 0.00 50 1017.4
20260508171000 79 238 4.0 7.0 0.00 0.00 0.00 56 1017.7
20260508161000 73 204 4.0 10.0 0.00 0.00 0.00 66 1018.6
20260508154000 69 201 3.0 6.0 0.00 0.00 0.00 75 1018.7
20260508144001 63 201 3.0 9.0 0.00 0.00 0.00 84 1019.0
20260508140959 62 211 4.0 7.0 0.00 0.00 0.00 85 1019.1
20260508134001 61 208 6.0 14.0 0.00 0.00 0.00 86 1018.8
20260508131001 60 206 4.0 8.0 0.00 0.00 0.00 87 1018.7
20260508124001 59 209 2.0 4.0 0.00 0.00 0.00 86 1018.5
20260508121001 59 220 2.0 3.0 0.00 0.00 0.00 86 1018.4
20260508114001 58 201 2.0 4.0 0.00 0.00 0.00 86 1018.3
20260508111001 58 215 1.0 3.0 0.00 0.00 0.00 86 1018.4
20260508105401 58 223 2.0 5.0 0.00 0.00 0.00 85 1018.4
20260508103801 58 236 3.0 6.0 0.00 0.00 0.00 85 1018.3
20260508102201 58 240 4.0 9.0 0.00 0.00 0.00 84 1018.4
20260508101801 57 236 4.0 9.0 0.00 0.00 0.00 84 1018.5
20260508101400 57 237 5.0 9.0 0.00 0.00 0.00 84 1018.6
20260508065329 57 205 1.0 2.0 0.00 0.00 0.00 67 1019.8
20260508062330 58 204 2.0 3.0 0.00 0.00 0.00 66 1019.8
20260508055329 58 194 3.0 4.0 0.00 0.00 0.00 64 1019.9
20260508052329 60 191 2.0 4.0 0.00 0.00 0.00 62 1020.1
20260508045331 61 194 3.0 5.0 0.00 0.00 0.00 60 1020.0
20260508042329 62 180 2.0 9.0 0.00 0.00 0.00 58 1019.8
20260508035331 64 168 4.0 8.0 0.00 0.00 0.00 57 1019.9
20260508032329 65 163 4.0 10.0 0.00 0.00 0.00 54 1019.6
20260508022329 69 152 1.0 4.0 0.00 0.00 0.00 46 1019.0
20260508015330 71 158 2.0 7.0 0.00 0.00 0.00 43 1019.0
20260508012330 73 162 3.0 9.0 0.00 0.00 0.00 39 1018.8